{"data":{"norad_id":69115,"epoch":"2026-09-20T03:11:52.920096Z","epoch_age_seconds":54812,"freshness":"FRESH","line1":"1 69115U 26108M   26263.13325139  .00000107  00000+0  14757-3 0  9999","line2":"2 69115  89.0209  12.5460 0001920 108.3575 251.7785 13.51023775 17288","mean_motion":13.51023775,"eccentricity":0.000192,"inclination_deg":89.0209,"raan_deg":12.546,"arg_perigee_deg":108.3575,"mean_anomaly_deg":251.7785,"bstar":0.00014757,"rev_number":1728,"period_min":106.58583709972,"perigee_km":1067.0644680546,"apogee_km":1069.9239744436,"semimajor_km":7446.6312212491,"source":"CELESTRAK","updated_at":"2026-09-20T09:00:24.682032Z"}}